Погода в Котельниче

Погода в Котельниче : погода сейчас, прогноз погоды и архив. Всё, что Вы хотите узнать о погоде в Котельниче!

Хотите узнать прогноз погоды в Котельниче? Тогда Вам сюда: Погода в Котельниче

Поиск расширенной информации на нашем сайте:

Другие новости

Новости СМИ2

Главная страница сайта

Новости сайта

03.07.2017

Напоминаем, что на нашем специализированном сайте Метеоцентр.Азия вы можете получить высокодетализированные автоматические прогнозы погоды по пунктам России, СНГ и мира в авиационном формате (включающие направление и скорость ветра, видимость, явления погоды, количество и форму облачности, нижнюю и верхнюю границу облачности).

Рекомендуем: Далее

Погода в Котельниче - сегодня

Время (UTC), дата Ветер
(°,м/с) 
Видим.   Явления Облачность Т
(°С)
Тd
(°С)
f(%) Тe
(°С)
Pmin
(гПа)
dP
(гПа)
Po
(мм)
O2
(г/м3)
Тmin Tmax R s Состояние
почвы
15 12.06.18 210 (ЮЗ) 4-7{10}  20000 м  в посл. час ливневой дождь  10/10 300 м кучево-дожд. 
[Cb cap]
+14.7 +11 78 +18  1001.5  -0.9  740  281    +19.2  0.7     
03 13.06.18 200 (Ю) 3-5{06}  20000 м  {ливн. осадки}  10/10 300 м 
[Sc]
+13.4 +11.5 88 +17  994.8  -2.7  735  280  +12.1      мокрая 
15 13.06.18 340 (С) 4-6{09}  9000 м  слаб. ливневой дождь{гроза}  10/10 300 м кучево-дожд. 
[Cb cap]
+12.6 +11.4 92 +15  998.2  2.4  737  282    +19.4  29     
03 14.06.18 320 (СЗ) 4-8{08}  20000 м    9/8 300 м кучево-дожд., средняя 
[Cb cap|Ac trans]
+8.3 +5.5 83 +7  1008.1  2.2  745  290  +7.8      мокрая 
15 14.06.18 300 (СЗ) 1-2{08}  9000 м  слаб. ливневой дождь  10/10 300 м кучево-дожд. 
[Cb cap]
+10.2 +6.4 77 +11  1013.5  1.1  749  290    +13.6  0.1     
03 15.06.18 320 (СЗ) 3-4{05}  20000 м    3/0 средняя 
[Ac trans]
+7.1 +1.7 68 +6  1017.5  0.7  752  295  +3.4    0.3    мокрая 
15 15.06.18 340 (С) 4-7{10}  20000 м    3/3 600 м верхняя 
[Cu hum|Ci fib]
+14.6 -0.5 35 +14  1016.9  -0.2  751  287    +15.3       
21 15.06.18 310 (СЗ) 1-1{02}  20000 м    ясно 
+4.8 +1.8 81 +6  1017.7  0.3  752  297           
03 16.06.18 320 (СЗ) 3-4{04}  20000 м    3/0 верхняя 
[Ci fib]
+10.2 +2.3 58 +10  1018.4  0.5  752  292  +2.4        влажная 
06 16.06.18 340 (С) 4-6{07}  20000 м    ясно 
+15.1 +2.3 42 +15  1018.3  0.2  752  287           
09 16.06.18 340 (С) 5-9{10}  20000 м    ясно 
+17.6 +0.4 31 +18  1018.5  0.3  753  285           
15 16.06.18 360 (С) 3-5{08}  20000 м    3/0 верхняя 
[Ci fib]
+19.8 +1.3 29 +21  1016.7  -0.4  751  282    +20.1       
03 17.06.18 340 (С) 2-3{03}  20000 м    ясно 
+13.4 +4.5 55 +14  1017.8  0.4  752  288  +5.5        влажная 
06 17.06.18 350 (С) 3-4{06}  20000 м    ясно 
+19 +5.8 42 +20  1016.7  -0.7  751  282           
09 17.06.18 350 (С) 4-8{09}  20000 м    ясно 
+21.7 +3 29 +22  1015.4  -1.2  750  280           
18 17.06.18 330 (СЗ) 1-1{06}  20000 м    ясно 
+15.7 +6.5 54 +17  1014.4  0.3  749  285           
21 17.06.18 330 (СЗ) 1-1{02}  10 км    ясно 
+9.5 +5.3 75 +11  1014.6  -0.1  749  291           
03 18.06.18 340 (С) 2-3{03}  20000 м    3/0 верхняя 
[Ci fib]
+14.7 +5.9 56 +15  1014.4  -0.1  749  286  +6.9        влажная 
15 18.06.18 350 (С) 2-3{08}  20000 м    3/3 600 м 
[Cu hum]
+26.1 +8.1 32 +26  1010.7  -1.3  747  273    +26.8       
03 19.06.18 340 (С) 2-2{02}  16000 м    6/0 средняя, верхняя 
[Ac trans|Ci fib]
+13.8 +10.7 82 +16  1010.7  -0.1  747  284  +11.4        влажная 
15 19.06.18 080 (В) 1-2{04}  20000 м    8/6 600 м кучево-дожд., верхняя 
[Cb cap|Ci fib]
+24.8 +13.5 49 +31  1004.8  -2.4  743  272    +27.6       
03 20.06.18 130 (ЮВ) 1-4{05}  15000 м    10/4 300 м кучево-дожд., средняя 
[Cb cap|Ac trans]
+17.3 +13.4 78 +25  999.6  -3  739  277  +14.9    0.3    влажная 
15 20.06.18 280 (З) 5-10{15}  20000 м  {гроза}  6/3 300 м кучево-дожд., средняя, верхняя 
[Cb cap|Ac trans|Ci fib]
+13.8 +7.6 66 +13  998.4  1.9  738  282    +18.4     
03 21.06.18 270 (З) 6-12{13}  20000 м    10/10 300 м кучево-дожд. 
[Cb cap]
+11.6 +6.8 72 +10  996.6  -0.6  736  283  +9.7    0.1    влажная 
15 21.06.18 300 (СЗ) 4-6{14}  20000 м  {ливн. осадки}  10/10 300 м кучево-дожд. 
[Cb cap]
+14.6 +8 65 +14  1000.4  2.5  739  281    +14.6     
Время (UTC), дата Ветер
(°,м/с) 
Видим.   Явления Облачность Т
(°С)
Тd
(°С)
f(%) Тe
(°С)
Pmin
(гПа)
dP
(гПа)
Po
(мм)
O2
(г/м3)
Тmin Tmax R s Состояние
почвы

Для получения пояснительной информации подведите курсор к названию столбца.

ПОГОДА в Котельниче - архив

Всё, что Вы хотите узнать о погоде в Котельниче - удобно и подробно!

Выберите нужную дату (начиная с 1 января 2015* года) и нажмите кнопку "Найти".
Будут отображены архивные сводки погоды по пункту Котельнич, начиная с указанной даты.


Отображать данные в формате CSV (для использования в таблицах Excel)


Внимание! Наш архив погоды предназначен исключительно для личного некоммерческого использования в познавательных целях. Если Вам необходимы официальные справки о состоянии погоды (для производственных, юридических, коммерческих и т.п. целей), обращайтесь в органы Росгидромета.

*Примечание: данная дата относится к архиву по метеостанциям СССР (Россия, СНГ, Балтия).
Архив по метеостанциям Зарубежной Европы и Азии (кроме Китая) хранится 10 дней, по другим регионам земного шара (Китай, Африка, Америка, Австралия, Океания) - 1 день.

Котельнич - район местоположения метеостанции


Название, широта, долгота, высота метеостанции:
Котельнич 58.3°ш. 48.3°д. 127 м над ур. моря [Российская Федерация]

Дополнительная информация

В oтличие oт бoльшинства пoгoдных сайтoв мы публикуем пoдрoбную метеoинфoрмацию в детальнoм прoфессиoнальнoм фoрмате.

Характеристики температуры и влажнoсти вoздуха измеряются на высoте 2 м в тени вдали oт зданий и деревьев.
Скoрoсть ветра измеряется на высoте 10 м (на урoвне рoста челoвека скoрoсть ветра ниже в 1.5-2 раза). Если метеoстанция нахoдится в гoрoде или в лесу, тo скoрoсть ветра занижена на 2-4 м/с пo сравнению с oткрытым местoм. Скoрoсть ветра над акватoриями крупных рек и oзёр, а также на вершинах хoлмoв на 2-5 м/с выше, чем в oбычных услoвиях.
Атмoсфернoе давление в разных тoчках местнoсти мoжет значительнo oтличаться oт давления на метеoстанции, в зависимoсти oт услoвий рельефа (при пoдъёме на 10 м давление пoнижается примернo на 1 мм рт.ст.).